VE3KSR Weather Reports


Display with metric or nautical units.
time (UTC)temp
F
wind
direction
speed
MPH
gust
MPH
rain 1hr
in
rain 24hr
in
rain mn
in
humidity
%
barometer
mb
20141222023841 23 155 11.0 13.0 0.67 0.00 0.00 95 1022.8
20141222023343 23 162 11.0 12.0 0.67 0.00 0.00 94 1022.8
20141222022842 23 162 11.0 12.0 0.67 0.00 0.00 95 1022.8
20141222022340 23 139 11.0 13.0 0.67 0.00 0.00 95 1022.7
20141222021842 23 149 10.0 12.0 0.67 0.00 0.00 94 1022.7
20141222021341 23 155 10.0 12.0 0.67 0.00 0.00 94 1022.9
20141222020841 23 179 10.0 12.0 0.67 0.00 0.00 94 1023.0
20141222020340 23 166 10.0 12.0 0.67 0.00 0.00 94 1022.9
20141222015842 23 166 10.0 13.0 0.67 0.00 0.00 94 1022.8
20141222015341 23 170 10.0 13.0 0.67 0.00 0.00 94 1023.0
20141222014841 23 160 10.0 12.0 0.67 0.00 0.00 94 1022.9
20141222014341 23 163 10.0 12.0 0.67 0.00 0.00 94 1023.0
20141222013840 23 167 10.0 11.0 0.67 0.00 0.00 94 1023.1
20141222013342 23 158 10.0 11.0 0.67 0.00 0.00 94 1023.0
20141222012842 24 163 9.0 11.0 0.67 0.00 0.00 94 1023.0
20141222012340 24 166 10.0 11.0 0.67 0.00 0.00 94 1023.0
20141222011840 24 159 9.0 11.0 0.67 0.00 0.00 94 1023.0
20141222011340 24 169 10.0 12.0 0.67 0.00 0.00 94 1023.0
20141222010841 24 153 9.0 11.0 0.67 0.00 0.00 94 1023.1
20141222010344 24 165 9.0 12.0 0.67 0.00 0.00 94 1023.0
20141222005841 24 159 10.0 12.0 0.67 0.00 0.00 94 1022.8
20141222005341 24 160 10.0 12.0 0.67 0.00 0.00 94 1022.8
20141222004842 24 173 9.0 10.0 0.67 0.00 0.00 94 1022.8
20141222004341 24 160 9.0 11.0 0.67 0.00 0.00 94 1022.9
20141222003845 24 165 9.0 11.0 0.67 0.00 0.00 93 1023.0
20141222003340 24 169 9.0 11.0 0.67 0.00 0.00 93 1023.0
20141222002840 24 156 9.0 11.0 0.67 0.00 0.00 93 1023.0
20141222002341 24 158 9.0 11.0 0.67 0.00 0.00 93 1022.9
20141222001841 24 167 9.0 10.0 0.67 0.00 0.00 93 1022.9
20141222001341 24 159 9.0 11.0 0.67 0.00 0.00 93 1022.8
20141222000841 24 163 9.0 11.0 0.67 0.00 0.00 93 1022.8
20141222000344 24 158 10.0 11.0 0.67 0.00 0.00 93 1022.7
20141221235843 24 156 9.0 11.0 0.67 0.00 0.00 93 1022.7
20141221235341 24 162 9.0 9.0 0.67 0.00 0.00 93 1022.8
20141221234844 24 163 8.0 9.0 0.67 0.00 0.00 93 1022.6
20141221234341 25 152 8.0 8.0 0.67 0.00 0.00 93 1022.6
20141221233841 25 160 7.0 8.0 0.67 0.00 0.00 93 1022.6
20141221233341 25 173 7.0 9.0 0.67 0.00 0.00 93 1022.5
20141221232841 25 170 7.0 9.0 0.67 0.00 0.00 93 1022.4
20141221232341 25 176 8.0 9.0 0.67 0.00 0.00 93 1022.4
20141221231841 25 163 8.0 9.0 0.67 0.00 0.00 93 1022.5
20141221231343 25 181 8.0 9.0 0.67 0.00 0.00 93 1022.6
20141221230841 25 173 8.0 9.0 0.67 0.00 0.00 93 1022.5
20141221230341 25 174 8.0 9.0 0.67 0.00 0.00 93 1022.5
20141221225840 25 181 8.0 9.0 0.67 0.00 0.00 93 1022.6
20141221225344 25 181 8.0 9.0 0.67 0.00 0.00 93 1022.5
20141221224843 26 180 7.0 8.0 0.67 0.00 0.00 93 1022.4
20141221224341 26 188 7.0 8.0 0.67 0.00 0.00 93 1022.5
20141221223841 26 183 8.0 9.0 0.67 0.00 0.00 93 1022.4
20141221223341 26 190 7.0 8.0 0.67 0.00 0.00 92 1022.4
20141221222842 26 181 8.0 9.0 0.67 0.00 0.00 92 1022.3
20141221222343 26 183 8.0 9.0 0.67 0.00 0.00 92 1022.2
20141221221843 26 190 8.0 10.0 0.67 0.00 0.00 92 1022.1
20141221221341 26 184 8.0 9.0 0.67 0.00 0.00 92 1022.2
20141221220841 26 190 8.0 9.0 0.67 0.00 0.00 92 1022.0
20141221220342 26 201 8.0 9.0 0.67 0.00 0.00 92 1022.0
20141221215841 26 190 8.0 10.0 0.67 0.00 0.00 92 1022.0
20141221215820 26 183 9.0 10.0 0.67 0.00 0.00 92 1021.8
20141221215343 26 190 8.0 10.0 0.67 0.00 0.00 92 1022.0
20141221214841 26 184 9.0 11.0 0.67 0.00 0.00 92 1022.1
20141221214343 26 201 9.0 11.0 0.67 0.00 0.00 92 1022.0
20141221213841 26 183 9.0 10.0 0.67 0.00 0.00 92 1021.8
20141221213341 27 195 7.0 9.0 0.67 0.00 0.00 92 1021.9
20141221212841 27 181 7.0 8.0 0.67 0.00 0.00 92 1021.8
20141221212342 27 205 7.0 9.0 0.67 0.00 0.00 92 1021.9
20141221211842 27 184 8.0 9.0 0.67 0.00 0.00 91 1021.9
20141221211341 27 186 7.0 9.0 0.67 0.00 0.00 91 1021.9
20141221210841 27 193 8.0 10.0 0.67 0.00 0.00 91 1021.9
20141221210342 27 195 7.0 8.0 0.67 0.00 0.00 91 1021.9
20141221205842 27 193 8.0 9.0 0.67 0.00 0.00 91 1021.8
20141221205341 27 166 9.0 11.0 0.67 0.00 0.00 91 1021.9
20141221204841 27 188 9.0 12.0 0.67 0.00 0.00 91 1021.8
20141221204341 27 191 8.0 9.0 0.67 0.00 0.00 91 1021.8
20141221203841 27 173 8.0 11.0 0.67 0.00 0.00 91 1021.8
20141221203344 27 176 7.0 9.0 0.67 0.00 0.00 91 1021.7
20141221202844 27 174 8.0 9.0 0.67 0.00 0.00 91 1021.6
20141221202342 27 181 8.0 9.0 0.67 0.00 0.00 91 1021.7
20141221201844 27 181 9.0 11.0 0.67 0.00 0.00 91 1021.7
20141221201342 27 188 7.0 9.0 0.67 0.00 0.00 91 1021.7
20141221200841 27 173 7.0 9.0 0.67 0.00 0.00 91 1021.7
20141221200341 27 184 6.0 7.0 0.67 0.00 0.00 91 1021.8
20141221194845 27 163 9.0 11.0 0.67 0.00 0.00 92 1021.8
20141221194343 28 184 9.0 10.0 0.67 0.00 0.00 91 1021.7
20141221193841 28 194 1.0 5.0 0.67 0.00 0.00 93 1021.8
20141221193341 27 214 4.0 6.0 0.67 0.00 0.00 93 1021.9
20141221192843 27 259 7.0 9.0 0.67 0.00 0.00 93 1022.0
20141221192341 27 246 8.0 12.0 0.67 0.00 0.00 93 1022.1
20141221191844 27 201 6.0 9.0 0.67 0.00 0.00 92 1022.0
20141221191343 27 181 8.0 10.0 0.67 0.00 0.00 92 1022.1
20141221190841 27 221 8.0 12.0 0.67 0.00 0.00 92 1022.1
20141221190341 27 215 9.0 11.0 0.67 0.00 0.00 93 1022.1
20141221185842 27 219 9.0 12.0 0.67 0.00 0.00 93 1022.2
20141221185341 27 238 5.0 6.0 0.67 0.00 0.00 94 1022.1
20141221184843 27 263 2.0 5.0 0.67 0.00 0.00 94 1022.2
20141221184344 27 212 4.0 6.0 0.67 0.00 0.00 94 1022.3
20141221183842 26 221 6.0 8.0 0.67 0.00 0.00 93 1022.3
20141221183343 26 222 8.0 9.0 0.67 0.00 0.00 93 1022.5
20141221182841 26 219 9.0 11.0 0.67 0.00 0.00 93 1022.4
20141221182341 27 215 9.0 12.0 0.67 0.00 0.00 94 1022.5
20141221181844 27 260 7.0 9.0 0.67 0.00 0.00 95 1022.6
20141221181341 27 245 6.0 8.0 0.67 0.00 0.00 95 1022.7
20141221180843 27 248 7.0 8.0 0.67 0.00 0.00 95 1022.6
20141221180342 27 0 0.0 0.0 0.67 0.00 0.00 95 1022.7
20141221180036 27 0 0.0 0.0 0.67 0.00 0.00 95 1022.8
20141221175843 27 0 0.0 0.0 0.67 0.00 0.00 95 1022.8
20141221175342 27 235 3.0 5.0 0.67 0.00 0.00 95 1022.7
20141221174841 27 257 6.0 7.0 0.67 0.00 0.00 95 1022.8
20141221174342 27 256 5.0 6.0 0.67 0.00 0.00 95 1022.8
20141221173843 27 267 4.0 5.0 0.67 0.00 0.00 95 1022.8
20141221173343 27 0 0.0 0.0 0.67 0.00 0.00 95 1022.9
20141221172841 26 219 4.0 6.0 0.67 0.00 0.00 95 1023.0
20141221172342 27 240 6.0 8.0 0.67 0.00 0.00 95 1023.0
20141221171843 27 215 5.0 7.0 0.67 0.00 0.00 95 1023.1
20141221171343 27 242 5.0 7.0 0.67 0.00 0.00 96 1023.2
20141221170843 27 250 4.0 6.0 0.67 0.00 0.00 96 1023.1
20141221170343 26 256 5.0 6.0 0.67 0.00 0.00 96 1023.1
20141221165842 26 46 1.0 3.0 0.67 0.00 0.00 96 1023.3
20141221165343 26 62 4.0 5.0 0.67 0.00 0.00 96 1023.3
20141221164842 26 302 6.0 7.0 0.67 0.00 0.00 96 1023.4
20141221164342 26 297 6.0 7.0 0.67 0.00 0.00 96 1023.3
20141221163845 26 0 0.0 0.0 0.67 0.00 0.00 96 1023.4
20141221163342 26 0 0.0 0.0 0.67 0.00 0.00 96 1023.4
20141221162844 26 0 0.0 0.0 0.67 0.00 0.00 96 1023.6
20141221162342 26 0 0.0 0.0 0.67 0.00 0.00 96 1023.6
20141221161842 26 0 0.0 0.0 0.67 0.00 0.00 96 1023.7
20141221161342 26 0 0.0 0.0 0.67 0.00 0.00 96 1023.7
20141221160842 26 0 0.0 0.0 0.67 0.00 0.00 96 1023.8
20141221160342 26 298 2.0 6.0 0.67 0.00 0.00 96 1023.9
20141221160018 26 298 6.0 6.0 0.67 0.00 0.00 97 1024.1
20141221155842 26 298 6.0 6.0 0.67 0.00 0.00 97 1024.1
20141221155342 26 301 5.0 7.0 0.67 0.00 0.00 97 1024.0
20141221154842 26 294 6.0 6.0 0.67 0.00 0.00 97 1024.2
20141221154342 26 297 5.0 6.0 0.67 0.00 0.00 97 1024.1
20141221153844 26 295 5.0 6.0 0.67 0.00 0.00 97 1024.0
20141221153345 26 304 5.0 6.0 0.67 0.00 0.00 97 1024.1
20141221152843 26 0 0.0 0.0 0.67 0.00 0.00 97 1024.1
20141221152342 25 0 0.0 0.0 0.67 0.00 0.00 97 1024.1
20141221151844 25 300 4.0 5.0 0.67 0.00 0.00 97 1024.1
20141221151343 25 0 0.0 0.0 0.67 0.00 0.00 97 1024.0
20141221150844 25 0 0.0 0.0 0.67 0.00 0.00 97 1024.0
20141221150343 25 0 0.0 0.0 0.67 0.00 0.00 97 1023.7
20141221145842 25 0 0.0 0.0 0.67 0.00 0.00 97 1023.9
20141221145342 25 0 0.0 0.0 0.67 0.00 0.00 97 1023.8
20141221144843 25 0 0.0 0.0 0.67 0.00 0.00 97 1023.9
20141221144342 25 300 4.0 6.0 0.67 0.00 0.00 97 1023.8
20141221143842 25 293 6.0 7.0 0.67 0.00 0.00 97 1023.9
20141221143343 25 308 6.0 6.0 0.67 0.00 0.00 97 1023.9
20141221142842 25 302 6.0 7.0 0.67 0.00 0.00 97 1023.9
20141221142343 25 302 6.0 8.0 0.67 0.00 0.00 97 1023.9
20141221141843 25 298 7.0 9.0 0.67 0.00 0.00 97 1023.9
20141221141344 25 309 7.0 8.0 0.67 0.00 0.00 97 1023.8
20141221140842 25 297 8.0 9.0 0.67 0.00 0.00 97 1023.9
20141221140342 25 323 7.0 8.0 0.67 0.00 0.00 97 1023.9
20141221135843 25 305 7.0 10.0 0.67 0.00 0.00 97 1023.8
20141221135343 25 293 7.0 9.0 0.67 0.00 0.00 97 1023.8
20141221134844 25 298 9.0 11.0 0.67 0.00 0.00 97 1023.9
20141221134342 25 298 10.0 12.0 0.67 0.00 0.00 97 1023.9
20141221133842 25 301 10.0 13.0 0.67 0.00 0.00 97 1023.8
20141221133345 25 300 10.0 13.0 0.67 0.00 0.00 97 1023.7
20141221132846 25 295 9.0 10.0 0.67 0.00 0.00 97 1023.8
20141221132343 25 290 8.0 9.0 0.67 0.00 0.00 97 1023.8
20141221131843 25 308 7.0 9.0 0.67 0.00 0.00 97 1023.6
20141221131344 25 307 8.0 9.0 0.67 0.00 0.00 97 1023.7
20141221130842 25 312 8.0 9.0 0.67 0.00 0.00 97 1023.7
20141221130343 25 294 8.0 9.0 0.67 0.00 0.00 97 1023.7
20141221125843 25 291 8.0 10.0 0.67 0.00 0.00 97 1023.7
20141221125345 25 308 9.0 10.0 0.67 0.00 0.00 97 1023.8
20141221124843 25 298 7.0 8.0 0.67 0.00 0.00 97 1023.7
20141221124350 25 302 7.0 8.0 0.67 0.00 0.00 97 1023.9
20141221123843 25 294 6.0 8.0 0.67 0.00 0.00 97 1023.8
20141221123342 25 305 6.0 9.0 0.67 0.00 0.00 97 1023.7
20141221122843 25 291 7.0 9.0 0.67 0.00 0.00 97 1023.7
20141221122342 25 302 7.0 9.0 0.67 0.00 0.00 97 1023.6
20141221121843 25 297 7.0 10.0 0.67 0.00 0.00 97 1023.6
20141221121343 25 297 7.0 10.0 0.67 0.00 0.00 97 1023.7
20141221120843 25 297 8.0 10.0 0.67 0.00 0.00 97 1023.6
20141221120342 25 307 7.0 9.0 0.67 0.00 0.00 97 1023.6
20141221115845 25 300 7.0 9.0 0.67 0.00 0.00 97 1023.7
20141221115342 25 298 8.0 9.0 0.67 0.00 0.00 97 1023.6
20141221114842 25 308 8.0 9.0 0.67 0.00 0.00 97 1023.6
20141221114342 25 293 7.0 9.0 0.67 0.00 0.00 97 1023.4
20141221113843 25 291 6.0 9.0 0.67 0.00 0.00 97 1023.4
20141221113342 25 305 7.0 9.0 0.67 0.00 0.00 97 1023.4
20141221112842 25 300 8.0 10.0 0.67 0.00 0.00 97 1023.3
20141221112342 25 302 8.0 10.0 0.67 0.00 0.00 97 1023.2
20141221111843 25 308 8.0 10.0 0.67 0.00 0.00 97 1023.2
20141221111344 25 304 7.0 9.0 0.67 0.00 0.00 97 1023.0
20141221110842 25 301 7.0 8.0 0.67 0.00 0.00 98 1023.0
20141221110343 24 298 7.0 8.0 0.67 0.00 0.00 98 1022.9
20141221105842 24 298 7.0 8.0 0.67 0.00 0.00 98 1022.8
20141221105342 24 297 7.0 8.0 0.67 0.00 0.00 98 1022.7
20141221104842 24 298 7.0 8.0 0.67 0.00 0.00 98 1022.7
20141221104345 24 301 6.0 8.0 0.67 0.00 0.00 98 1022.6
20141221103844 24 301 7.0 8.0 0.67 0.00 0.00 98 1022.6
20141221103343 24 301 7.0 9.0 0.67 0.00 0.00 98 1022.7
20141221102843 24 305 7.0 9.0 0.67 0.00 0.00 98 1022.7
20141221102343 24 300 8.0 9.0 0.67 0.00 0.00 98 1022.8
20141221101844 24 301 7.0 9.0 0.67 0.00 0.00 98 1022.7
20141221101344 24 298 7.0 9.0 0.67 0.00 0.00 98 1022.5
20141221100843 24 309 8.0 9.0 0.67 0.00 0.00 98 1022.6
20141221100344 24 305 7.0 9.0 0.67 0.00 0.00 98 1022.6
20141221095842 24 298 8.0 9.0 0.67 0.00 0.00 98 1022.7
20141221095343 24 288 7.0 9.0 0.67 0.00 0.00 98 1022.5
20141221094842 24 308 6.0 8.0 0.67 0.00 0.00 99 1022.6
20141221094343 24 315 7.0 9.0 0.67 0.00 0.00 99 1022.6
20141221093843 24 0 0.0 0.0 0.67 0.00 0.00 98 1022.6
20141221093343 24 298 2.0 5.0 0.67 0.00 0.00 98 1022.6
20141221092843 24 314 6.0 7.0 0.67 0.00 0.00 99 1022.5
20141221092342 24 290 7.0 8.0 0.67 0.00 0.00 99 1022.6
20141221091842 24 293 7.0 9.0 0.67 0.00 0.00 99 1022.6
20141221091342 24 293 8.0 9.0 0.67 0.00 0.00 99 1022.6
20141221090842 24 304 7.0 8.0 0.67 0.00 0.00 99 1022.8
20141221090342 24 300 7.0 8.0 0.67 0.00 0.00 99 1022.9
20141221085845 24 319 8.0 9.0 0.67 0.00 0.00 99 1022.8
20141221085343 24 304 8.0 9.0 0.67 0.00 0.00 99 1022.8
20141221084843 24 298 8.0 9.0 0.67 0.00 0.00 99 1023.0
20141221084344 24 301 9.0 10.0 0.67 0.00 0.00 99 1022.9
20141221083842 24 301 8.0 9.0 0.67 0.00 0.00 99 1022.8
20141221083343 24 297 7.0 8.0 0.67 0.00 0.00 99 1022.9
20141221082846 24 309 7.0 8.0 0.67 0.00 0.00 99 1022.8
20141221082342 24 307 7.0 8.0 0.67 0.00 0.00 99 1022.8
20141221081843 24 307 7.0 8.0 0.67 0.00 0.00 99 1022.8
20141221081343 24 308 7.0 7.0 0.67 0.00 0.00 99 1022.7
20141221080843 24 301 7.0 8.0 0.67 0.00 0.00 99 1022.6
20141221080343 24 312 6.0 6.0 0.67 0.00 0.00 99 1022.7
20141221075842 23 325 6.0 7.0 0.67 0.00 0.00 99 1022.7
20141221075343 23 330 6.0 8.0 0.67 0.00 0.00 99 1022.7
20141221074843 24 322 6.0 8.0 0.67 0.00 0.00 99 1022.7
20141221074344 24 323 7.0 8.0 0.67 0.00 0.00 99 1022.6
20141221073843 23 322 7.0 9.0 0.67 0.00 0.00 98 1022.6
20141221073343 24 323 8.0 9.0 0.67 0.00 0.00 98 1022.7
20141221072843 23 323 7.0 9.0 0.67 0.00 0.00 98 1022.6
20141221072343 23 322 7.0 8.0 0.67 0.00 0.00 98 1022.5
20141221071843 23 326 7.0 8.0 0.67 0.00 0.00 98 1022.4
20141221071346 23 326 7.0 8.0 0.67 0.00 0.00 98 1022.2
20141221070844 23 332 7.0 8.0 0.67 0.00 0.00 98 1022.3
20141221070347 23 328 7.0 8.0 0.67 0.00 0.00 98 1022.3
20141221065843 24 322 8.0 9.0 0.67 0.00 0.00 98 1022.2
20141221065343 23 321 8.0 9.0 0.67 0.00 0.00 98 1022.1
20141221064843 23 330 7.0 8.0 0.67 0.00 0.00 98 1021.9
20141221064343 23 325 7.0 8.0 0.67 0.00 0.00 98 1022.0
20141221063843 23 329 7.0 8.0 0.67 0.00 0.00 98 1021.9
20141221063343 23 318 7.0 8.0 0.67 0.00 0.00 98 1022.0
20141221062843 23 307 7.0 8.0 0.67 0.00 0.00 98 1021.9
20141221062343 23 308 9.0 9.0 0.67 0.00 0.00 98 1021.9
20141221061843 23 308 8.0 9.0 0.67 0.00 0.00 97 1022.0
20141221061343 23 309 8.0 8.0 0.67 0.00 0.00 97 1022.0
20141221060844 23 321 7.0 8.0 0.67 0.00 0.00 97 1022.1
20141221060343 23 318 7.0 8.0 0.67 0.00 0.00 97 1022.2
20141221055844 23 318 7.0 8.0 0.67 0.00 0.00 97 1022.1
20141221055343 24 321 7.0 8.0 0.67 0.00 0.00 97 1022.1
20141221054843 23 325 7.0 8.0 0.67 0.00 0.00 97 1022.1
20141221054348 23 319 7.0 8.0 0.67 0.00 0.00 97 1022.1
20141221053843 23 309 7.0 8.0 0.67 0.00 0.00 97 1022.2
20141221053343 23 315 7.0 8.0 0.67 0.00 0.00 97 1022.1
20141221052851 23 309 8.0 9.0 0.67 0.00 0.00 97 1022.1
20141221052343 23 311 8.0 9.0 0.67 0.00 0.00 97 1022.1
20141221051843 23 314 8.0 9.0 0.67 0.00 0.00 96 1022.2
20141221051343 24 312 8.0 10.0 0.67 0.00 0.00 96 1022.2
20141221050843 24 311 8.0 10.0 0.67 0.00 0.00 96 1022.3
20141221050343 24 314 8.0 9.0 0.67 0.00 0.00 97 1022.3
20141221045844 23 307 8.0 8.0 0.67 0.00 0.00 97 1022.4
20141221045345 23 309 8.0 8.0 0.67 0.00 0.00 97 1022.5
20141221044844 23 309 8.0 8.0 0.67 0.00 0.00 97 1022.5
20141221044344 23 309 7.0 8.0 0.67 0.00 0.00 97 1022.6
20141221043844 23 309 7.0 8.0 0.67 0.00 0.00 97 1022.4
20141221043343 23 312 7.0 8.0 0.67 0.00 0.00 97 1022.4
20141221042846 23 308 7.0 8.0 0.67 0.00 0.00 97 1022.5
20141221042343 23 321 7.0 7.0 0.67 0.00 0.00 97 1022.5
20141221041843 23 359 7.0 8.0 0.67 0.00 0.00 97 1022.4
20141221041344 24 323 7.0 7.0 0.67 0.00 0.00 97 1022.5
20141221040843 24 328 7.0 7.0 0.67 0.00 0.00 97 1022.4
20141221040343 24 321 7.0 8.0 0.67 0.00 0.00 97 1022.4
20141221035843 24 328 7.0 8.0 0.67 0.00 0.00 97 1022.4
20141221035344 24 322 7.0 8.0 0.67 0.00 0.00 97 1022.3
20141221034843 23 323 7.0 8.0 0.67 0.00 0.00 97 1022.4
20141221034343 23 322 8.0 8.0 0.67 0.00 0.00 97 1022.4
20141221033843 23 321 7.0 8.0 0.67 0.00 0.00 97 1022.5
20141221033343 23 321 7.0 8.0 0.67 0.00 0.00 97 1022.5
20141221032844 23 326 7.0 7.0 0.67 0.00 0.00 97 1022.4
20141221032343 23 309 7.0 8.0 0.67 0.00 0.00 97 1022.5
20141221031843 23 316 7.0 8.0 0.67 0.00 0.00 97 1022.5
20141221031344 23 325 7.0 8.0 0.67 0.00 0.00 97 1022.5
20141221030844 23 315 7.0 7.0 0.67 0.00 0.00 97 1022.5
20141221030343 23 329 7.0 7.0 0.67 0.00 0.00 97 1022.6
20141221025844 23 322 7.0 8.0 0.67 0.00 0.00 97 1022.6
20141221025343 23 326 7.0 8.0 0.67 0.00 0.00 97 1022.6
20141221024849 24 309 7.0 7.0 0.67 0.00 0.00 97 1022.6
20141221024344 24 318 7.0 7.0 0.67 0.00 0.00 97 1022.6